Date String (YYYY-MM-DD hh:mm:ss) UTC,Instrument flags,Ambient pressure (hPa),Sample flow (lpm),Bypass flow (lpm),Sample temperature (°C),Ambient temperature (°C),ASC tube jacket temperature (°C),LED temperature (°C),Box temperature (°C),Sample RH (%),Span deviation,Mass concentration (μg/m³),Mass concentration (μg/m³),Mass concentration (μg/m³)
DateTimeUTC,F1_M11,P_M11,Q1_M11,Q2_M11,T1_M11,T2_M11,T3_M11,T4_M11,T5_M11,U1_M11,ZSPAN_M11,X0_M11,X2_M11,X1_M11
2022-09-28 09:00:00,,0833.2,5.01,0.00,30.7,29.1,00.0,39.5,32.5,18.0,0000.0,0010.39,0003.55,0002.89
2022-09-28 09:01:00,,0833.2,4.99,0.00,30.7,29.1,00.0,39.5,32.5,17.9,0000.0,0010.35,0003.57,0002.93
2022-09-28 09:02:00,,0833.2,5.00,0.00,30.7,29.1,00.0,39.5,32.5,17.9,0000.0,0010.21,0003.58,0002.95
2022-09-28 09:03:00,,0833.2,5.01,0.00,30.7,29.1,00.0,39.5,32.5,17.8,0000.0,0010.23,0003.59,0002.97
2022-09-28 09:04:00,,0833.2,5.01,0.00,30.7,29.1,00.0,39.5,32.5,17.6,0000.0,0010.42,0003.63,0002.98
2022-09-28 09:05:00,,0833.1,5.01,0.00,30.7,29.1,00.0,39.5,32.5,17.2,0000.0,0010.14,0003.64,0003.00
2022-09-28 09:06:00,,0833.1,4.99,0.00,30.7,29.1,00.0,39.5,32.5,16.9,0000.0,0010.07,0003.62,0002.99
2022-09-28 09:07:00,,0833.1,5.00,0.00,30.7,29.1,00.0,39.5,32.5,16.9,0000.0,0010.36,0003.59,0002.96
2022-09-28 09:08:00,,0833.0,5.00,0.00,30.7,29.1,00.0,39.5,32.5,16.9,0000.0,0010.38,0003.52,0002.90
2022-09-28 09:09:00,,0833.0,4.99,0.00,30.7,29.1,00.0,39.5,32.5,17.0,0000.0,0010.19,0003.46,0002.84
2022-09-28 09:10:00,,0833.0,5.01,0.00,30.7,29.1,00.0,39.5,32.5,17.1,0000.0,0009.65,0003.42,0002.80
2022-09-28 09:11:00,,0833.0,5.01,0.00,30.7,29.0,00.0,39.5,32.4,17.2,0000.0,0008.35,0003.38,0002.75
2022-09-28 09:12:00,,0833.0,4.99,0.00,30.7,29.0,00.0,39.5,32.4,17.2,0000.0,0007.88,0003.33,0002.70
2022-09-28 09:13:00,,0833.0,5.01,0.00,30.7,29.0,00.0,39.5,32.4,17.2,0000.0,0007.80,0003.31,0002.67
2022-09-28 09:14:00,,0833.0,4.99,0.00,30.7,29.0,00.0,39.5,32.4,16.9,0000.0,0007.75,0003.27,0002.62
2022-09-28 09:15:00,,0833.0,5.00,0.00,30.7,29.0,00.0,39.4,32.4,16.8,0000.0,0007.48,0003.23,0002.57
2022-09-28 09:16:00,,0833.0,4.99,0.00,30.7,29.0,00.0,39.4,32.4,16.5,0000.0,0007.50,0003.19,0002.52
2022-09-28 09:17:00,,0832.9,4.99,0.00,30.6,28.9,00.0,39.4,32.4,16.2,0000.0,0007.39,0003.17,0002.49
2022-09-28 09:18:00,,0832.9,5.01,0.00,30.6,28.9,00.0,39.4,32.4,16.4,0000.0,0006.96,0003.16,0002.47
2022-09-28 09:19:00,,0832.9,4.99,0.00,30.6,28.9,00.0,39.4,32.4,16.3,0000.0,0006.27,0003.12,0002.45
2022-09-28 09:20:00,,0832.8,5.01,0.00,30.6,28.9,00.0,39.4,32.4,16.0,0000.0,0005.83,0003.04,0002.43
2022-09-28 09:21:00,,0832.8,5.00,0.00,30.6,28.9,00.0,39.4,32.4,16.0,0000.0,0004.96,0002.99,0002.40
2022-09-28 09:22:00,,0832.8,4.99,0.00,30.6,28.9,00.0,39.4,32.4,16.0,0000.0,0004.73,0002.91,0002.37
2022-09-28 09:23:00,,0832.8,5.01,0.00,30.6,28.9,00.0,39.4,32.4,15.9,0000.0,0004.58,0002.85,0002.35
2022-09-28 09:24:00,,0832.8,5.00,0.00,30.6,28.9,00.0,39.4,32.4,15.9,0000.0,0004.61,0002.85,0002.34
2022-09-28 09:25:00,,0832.8,5.01,0.00,30.6,28.9,00.0,39.4,32.4,16.0,0000.0,0004.62,0002.87,0002.35
2022-09-28 09:26:00,,0832.8,4.99,0.00,30.6,29.0,00.0,39.4,32.4,15.9,0000.0,0004.46,0002.84,0002.36
2022-09-28 09:27:00,,0832.8,5.00,0.00,30.6,28.9,00.0,39.4,32.4,16.0,0000.0,0003.93,0002.79,0002.36
2022-09-28 09:28:00,,0832.8,5.00,0.00,30.6,29.0,00.0,39.4,32.4,16.0,0000.0,0003.91,0002.78,0002.38
2022-09-28 09:29:00,,0832.8,4.99,0.00,30.6,28.9,00.0,39.4,32.3,16.0,0000.0,0003.81,0002.79,0002.40
2022-09-28 09:30:00,,0832.8,5.01,0.00,30.6,28.9,00.0,39.4,32.3,16.1,0000.0,0003.77,0002.80,0002.42
2022-09-28 09:31:00,,0832.8,4.99,0.00,30.6,28.9,00.0,39.4,32.3,16.2,0000.0,0003.88,0002.81,0002.43
2022-09-28 09:32:00,,0832.8,5.00,0.00,30.6,28.9,00.0,39.4,32.3,16.1,0000.0,0003.75,0002.81,0002.45
2022-09-28 09:33:00,,0832.8,5.01,0.00,30.6,28.9,00.0,39.4,32.4,16.0,0000.0,0003.70,0002.80,0002.46
2022-09-28 09:34:00,,0832.8,4.99,0.00,30.6,28.9,00.0,39.4,32.3,15.9,0000.0,0003.74,0002.83,0002.47
2022-09-28 09:35:00,,0832.8,5.01,0.00,30.6,28.9,00.0,39.4,32.4,15.8,0000.0,0003.99,0002.84,0002.47
2022-09-28 09:36:00,,0832.9,5.00,0.00,30.6,28.9,00.0,39.4,32.4,15.6,0000.0,0004.10,0002.78,0002.44
2022-09-28 09:37:00,,0832.9,5.00,0.00,30.6,28.9,00.0,39.4,32.4,15.7,0000.0,0004.20,0002.76,0002.42
2022-09-28 09:38:00,,0832.8,5.00,0.00,30.6,29.0,00.0,39.3,32.4,15.6,0000.0,0004.23,0002.77,0002.42
2022-09-28 09:39:00,,0832.8,5.00,0.00,30.6,29.0,00.0,39.3,32.4,15.5,0000.0,0004.23,0002.78,0002.42
2022-09-28 09:40:00,,0832.8,5.00,0.00,30.6,29.0,00.0,39.4,32.4,15.5,0000.0,0004.31,0002.78,0002.41
2022-09-28 09:41:00,,0832.8,4.98,0.00,30.6,29.0,00.0,39.4,32.4,15.5,0000.0,0004.48,0002.80,0002.40
2022-09-28 09:42:00,,0832.8,5.01,0.00,30.6,29.0,00.0,39.3,32.4,15.5,0000.0,0004.44,0002.82,0002.39
2022-09-28 09:43:00,,0832.8,5.00,0.00,30.6,29.0,00.0,39.3,32.4,15.6,0000.0,0004.39,0002.82,0002.39
2022-09-28 09:44:00,,0832.8,5.01,0.00,30.6,29.0,00.0,39.3,32.4,15.6,0000.0,0004.50,0002.85,0002.39
2022-09-28 09:45:00,,0832.8,4.98,0.00,30.6,29.0,00.0,39.4,32.4,15.6,0000.0,0004.53,0002.84,0002.39
2022-09-28 09:46:00,,0832.8,5.01,0.00,30.6,29.0,00.0,39.3,32.4,15.5,0000.0,0004.31,0002.86,0002.39
2022-09-28 09:47:00,,0832.8,4.99,0.00,30.6,29.0,00.0,39.3,32.4,15.5,0000.0,0004.03,0002.85,0002.40
2022-09-28 09:48:00,,0832.7,5.01,0.00,30.6,29.0,00.0,39.3,32.4,15.6,0000.0,0003.95,0002.86,0002.40
2022-09-28 09:49:00,,0832.7,4.99,0.00,30.6,29.0,00.0,39.3,32.4,15.6,0000.0,0004.02,0002.84,0002.40
2022-09-28 09:50:00,,0832.7,5.01,0.00,30.6,29.0,00.0,39.3,32.4,15.5,0000.0,0004.13,0002.85,0002.40
2022-09-28 09:51:00,,0832.7,5.00,0.00,30.6,29.0,00.0,39.3,32.4,15.6,0000.0,0004.07,0002.85,0002.41
2022-09-28 09:52:00,,0832.7,5.00,0.00,30.6,29.0,00.0,39.3,32.3,15.5,0000.0,0003.89,0002.81,0002.41
2022-09-28 09:53:00,,0832.7,5.00,0.00,30.6,29.0,00.0,39.3,32.3,15.5,0000.0,0003.91,0002.78,0002.41
2022-09-28 09:54:00,,0832.7,5.01,0.00,30.6,29.0,00.0,39.3,32.4,15.4,0000.0,0003.93,0002.77,0002.40
2022-09-28 09:55:00,,0832.7,4.99,0.00,30.6,29.0,00.0,39.3,32.4,15.5,0000.0,0003.95,0002.78,0002.39
2022-09-28 09:56:00,,0832.8,5.01,0.00,30.6,29.0,00.0,39.3,32.4,15.6,0000.0,0003.93,0002.75,0002.39
2022-09-28 09:57:00,,0832.7,4.99,0.00,30.6,29.0,00.0,39.3,32.4,15.4,0000.0,0004.35,0002.70,0002.38
2022-09-28 09:58:00,,0832.8,5.01,0.00,30.6,29.0,00.0,39.3,32.4,15.5,0000.0,0004.37,0002.68,0002.36
2022-09-28 09:59:00,,0832.8,5.00,0.00,30.6,29.0,00.0,39.3,32.4,15.9,0000.0,0004.35,0002.68,0002.36
